| time (UTC) | temp F | wind direction | speed knots | gust knots | rain 1hr in | rain 24hr in | rain mn in | humidity % | barometer mb |
| 20260510100318 | 71 | 298 | 0.0 | 0.0 | 0.00 | 0.29 | 0.01 | 95 | 1012.9 |
| 20260510094836 | 71 | 298 | 0.0 | 0.0 | 0.00 | 0.29 | 0.01 | 95 | 1012.7 |
| 20260510093323 | 71 | 298 | 0.0 | 0.0 | 0.00 | 0.29 | 0.01 | 95 | 1012.6 |
| 20260510091812 | 71 | 298 | 0.0 | 0.0 | 0.00 | 0.29 | 0.01 | 95 | 1012.4 |
| 20260510090348 | 71 | 298 | 0.0 | 0.0 | 0.00 | 0.29 | 0.01 | 95 | 1012.3 |
| 20260510084843 | 71 | 298 | 0.0 | 0.0 | 0.00 | 0.29 | 0.01 | 95 | 1012.1 |
| 20260510083322 | 71 | 298 | 0.0 | 0.0 | 0.00 | 0.29 | 0.01 | 95 | 1011.9 |
| 20260510081812 | 71 | 298 | 0.0 | 0.0 | 0.01 | 0.29 | 0.01 | 95 | 1012.0 |
| 20260510080327 | 71 | 298 | 0.0 | 0.9 | 0.01 | 0.29 | 0.01 | 95 | 1012.0 |
| 20260510074839 | 71 | 298 | 0.0 | 0.0 | 0.01 | 0.29 | 0.01 | 95 | 1012.0 |
| 20260510073325 | 70 | 298 | 0.0 | 0.0 | 0.01 | 0.29 | 0.01 | 94 | 1012.0 |
| 20260510071821 | 70 | 298 | 0.0 | 0.9 | 0.00 | 0.28 | 0.00 | 94 | 1011.9 |
| 20260510070327 | 70 | 298 | 0.0 | 0.0 | 0.00 | 0.28 | 0.00 | 94 | 1011.8 |
| 20260510064819 | 70 | 298 | 0.0 | 0.0 | 0.00 | 0.28 | 0.00 | 94 | 1011.8 |
| 20260510063344 | 70 | 298 | 0.0 | 0.0 | 0.00 | 0.28 | 0.00 | 94 | 1012.0 |
| 20260510061837 | 70 | 298 | 0.0 | 0.0 | 0.00 | 0.28 | 0.00 | 94 | 1012.1 |
| 20260510060321 | 70 | 298 | 0.0 | 0.0 | 0.00 | 0.28 | 0.00 | 94 | 1012.1 |
| 20260510054832 | 70 | 298 | 0.0 | 0.0 | 0.00 | 0.28 | 0.00 | 94 | 1012.5 |
| 20260510053324 | 70 | 298 | 0.0 | 0.0 | 0.00 | 0.28 | 0.00 | 94 | 1012.6 |
| 20260510051817 | 70 | 298 | 0.0 | 0.0 | 0.00 | 0.28 | 0.00 | 94 | 1012.9 |
| 20260510050327 | 70 | 298 | 0.0 | 0.0 | 0.00 | 0.28 | 0.00 | 94 | 1013.2 |
| 20260510044824 | 70 | 298 | 0.0 | 0.0 | 0.00 | 0.28 | 0.00 | 94 | 1013.3 |
| 20260510043331 | 71 | 298 | 0.0 | 0.0 | 0.00 | 0.28 | 0.00 | 94 | 1013.2 |
| 20260510041826 | 71 | 298 | 0.0 | 0.0 | 0.00 | 0.28 | 0.00 | 94 | 1013.2 |
| 20260510040312 | 71 | 298 | 0.0 | 0.0 | 0.00 | 0.28 | 0.00 | 94 | 1013.3 |
| 20260510034825 | 71 | 298 | 0.0 | 0.0 | 0.00 | 0.37 | 0.28 | 94 | 1013.3 |
| 20260510033318 | 72 | 298 | 0.0 | 0.0 | 0.00 | 0.37 | 0.28 | 94 | 1013.4 |
| 20260510031814 | 71 | 298 | 0.0 | 0.9 | 0.00 | 0.37 | 0.28 | 93 | 1013.5 |
| 20260510030352 | 72 | 298 | 0.0 | 0.0 | 0.00 | 0.37 | 0.28 | 93 | 1013.3 |
| 20260510024818 | 72 | 298 | 0.0 | 0.9 | 0.00 | 0.48 | 0.28 | 93 | 1013.1 |
| 20260510023332 | 72 | 298 | 0.9 | 1.7 | 0.00 | 0.48 | 0.28 | 93 | 1013.0 |
| 20260510021824 | 72 | 298 | 0.9 | 1.7 | 0.00 | 0.48 | 0.28 | 93 | 1012.8 |
| 20260510020317 | 72 | 298 | 0.0 | 0.9 | 0.00 | 0.48 | 0.28 | 93 | 1012.4 |
| 20260510014826 | 72 | 298 | 0.0 | 0.0 | 0.00 | 0.48 | 0.28 | 93 | 1012.2 |
| 20260510013341 | 72 | 298 | 0.0 | 0.9 | 0.00 | 0.48 | 0.28 | 93 | 1011.8 |
| 20260510011818 | 72 | 298 | 0.0 | 0.9 | 0.00 | 0.48 | 0.28 | 92 | 1012.0 |
| 20260510010355 | 72 | 298 | 0.0 | 0.9 | 0.01 | 0.48 | 0.28 | 92 | 1011.9 |
| 20260510004846 | 72 | 298 | 0.0 | 0.9 | 0.01 | 0.48 | 0.28 | 92 | 1011.8 |
| 20260510003313 | 72 | 298 | 0.0 | 1.7 | 0.02 | 0.48 | 0.28 | 92 | 1011.9 |
| 20260510001828 | 72 | 343 | 0.9 | 1.7 | 0.02 | 0.48 | 0.28 | 92 | 1011.9 |
| 20260510000313 | 73 | 244 | 0.0 | 1.7 | 0.01 | 0.47 | 0.27 | 92 | 1012.2 |
| 20260509234830 | 73 | 30 | 0.0 | 0.9 | 0.01 | 0.47 | 0.27 | 92 | 1012.4 |
| 20260509233319 | 73 | 30 | 0.0 | 0.9 | 0.00 | 0.46 | 0.26 | 91 | 1012.3 |
| 20260509231837 | 73 | 30 | 0.0 | 0.9 | 0.00 | 0.46 | 0.26 | 91 | 1012.3 |
| 20260509230331 | 73 | 30 | 0.0 | 1.7 | 0.00 | 0.46 | 0.26 | 91 | 1012.1 |
| 20260509224827 | 73 | 30 | 0.0 | 2.6 | 0.00 | 0.46 | 0.26 | 91 | 1012.0 |
| 20260509223323 | 73 | 15 | 0.9 | 1.7 | 0.00 | 0.46 | 0.26 | 91 | 1012.2 |
| 20260509221817 | 73 | 355 | 0.9 | 4.3 | 0.00 | 0.46 | 0.26 | 91 | 1012.1 |
| 20260509220321 | 73 | 5 | 1.7 | 3.5 | 0.00 | 0.46 | 0.26 | 90 | 1012.0 |
| 20260509214853 | 73 | 46 | 0.9 | 3.5 | 0.00 | 0.46 | 0.26 | 90 | 1011.9 |
| 20260509213351 | 74 | 55 | 0.9 | 3.5 | 0.00 | 0.46 | 0.26 | 90 | 1011.8 |
| 20260509211825 | 74 | 38 | 2.6 | 5.2 | 0.00 | 0.46 | 0.26 | 90 | 1011.7 |
| 20260509210333 | 75 | 355 | 1.7 | 8.7 | 0.01 | 0.46 | 0.26 | 90 | 1011.5 |
| 20260509204829 | 75 | 277 | 3.5 | 7.8 | 0.02 | 0.46 | 0.26 | 90 | 1011.5 |
| 20260509203343 | 76 | 343 | 1.7 | 5.2 | 0.02 | 0.46 | 0.26 | 90 | 1011.6 |
| 20260509201813 | 76 | 307 | 3.5 | 11.3 | 0.03 | 0.46 | 0.26 | 90 | 1011.6 |
| 20260509200327 | 77 | 323 | 2.6 | 7.8 | 0.03 | 0.45 | 0.25 | 89 | 1011.5 |
| 20260509194819 | 77 | 298 | 0.9 | 2.6 | 0.12 | 0.44 | 0.24 | 88 | 1011.5 |
| 20260509193332 | 77 | 221 | 0.0 | 2.6 | 0.23 | 0.44 | 0.24 | 86 | 1011.5 |
| 20260509191826 | 78 | 241 | 0.9 | 2.6 | 0.22 | 0.43 | 0.23 | 85 | 1011.6 |
| 20260509190314 | 79 | 333 | 0.0 | 1.7 | 0.21 | 0.42 | 0.22 | 83 | 1011.7 |
| 20260509184827 | 81 | 195 | 0.9 | 2.6 | 0.10 | 0.31 | 0.11 | 80 | 1011.5 |
| 20260509183312 | 81 | 85 | 0.9 | 2.6 | 0.00 | 0.21 | 0.01 | 77 | 1011.5 |
| 20260509181843 | 82 | 84 | 1.7 | 2.6 | 0.00 | 0.21 | 0.01 | 76 | 1011.7 |
| 20260509180338 | 82 | 82 | 0.9 | 2.6 | 0.00 | 0.21 | 0.01 | 76 | 1011.7 |
| 20260509174850 | 82 | 38 | 2.6 | 4.3 | 0.00 | 0.21 | 0.01 | 76 | 1011.7 |
| 20260509173319 | 82 | 265 | 0.0 | 2.6 | 0.00 | 0.21 | 0.01 | 77 | 1012.1 |
| 20260509171828 | 81 | 143 | 1.7 | 2.6 | 0.00 | 0.21 | 0.01 | 77 | 1012.1 |
| 20260509170329 | 80 | 197 | 0.9 | 2.6 | 0.00 | 0.21 | 0.01 | 79 | 1012.0 |
| 20260509164821 | 79 | 107 | 1.7 | 3.5 | 0.00 | 0.21 | 0.01 | 81 | 1012.1 |
| 20260509163350 | 78 | 197 | 0.9 | 3.5 | 0.00 | 0.21 | 0.01 | 83 | 1012.1 |
| 20260509161818 | 78 | 212 | 0.9 | 2.6 | 0.00 | 0.21 | 0.01 | 83 | 1012.5 |
| 20260509160321 | 77 | 144 | 0.0 | 1.7 | 0.00 | 0.21 | 0.01 | 84 | 1012.5 |
| 20260509154813 | 76 | 144 | 0.0 | 1.7 | 0.00 | 0.21 | 0.01 | 85 | 1012.7 |
| 20260509153326 | 76 | 62 | 0.9 | 4.3 | 0.00 | 0.21 | 0.01 | 85 | 1012.4 |
| 20260509151830 | 76 | 350 | 0.9 | 2.6 | 0.00 | 0.21 | 0.01 | 86 | 1012.6 |
| 20260509150323 | 76 | 54 | 0.9 | 2.6 | 0.01 | 0.21 | 0.01 | 88 | 1012.5 |
| 20260509144836 | 75 | 153 | 0.9 | 1.7 | 0.01 | 0.21 | 0.01 | 91 | 1012.7 |
| 20260509143359 | 74 | 5 | 0.9 | 1.7 | 0.01 | 0.21 | 0.01 | 92 | 1012.6 |
| 20260509141822 | 73 | 294 | 0.9 | 2.6 | 0.01 | 0.21 | 0.01 | 93 | 1012.6 |
| 20260509140332 | 73 | 265 | 0.0 | 1.7 | 0.00 | 0.20 | 0.00 | 93 | 1012.3 |
| 20260509134813 | 72 | 317 | 0.9 | 1.7 | 0.00 | 0.20 | 0.00 | 94 | 1012.6 |
| 20260509133324 | 72 | 275 | 0.9 | 3.5 | 0.00 | 0.20 | 0.00 | 94 | 1012.5 |
| 20260509131833 | 72 | 307 | 1.7 | 3.5 | 0.00 | 0.20 | 0.00 | 94 | 1012.3 |
| 20260509130320 | 71 | 302 | 0.9 | 1.7 | 0.00 | 0.20 | 0.00 | 94 | 1012.2 |
| 20260509124834 | 71 | 304 | 0.0 | 0.9 | 0.00 | 0.20 | 0.00 | 94 | 1012.0 |
| 20260509123320 | 70 | 17 | 0.9 | 1.7 | 0.00 | 0.20 | 0.00 | 94 | 1011.8 |
| 20260509121817 | 70 | 17 | 0.0 | 1.7 | 0.00 | 0.20 | 0.00 | 94 | 1011.6 |
| 20260509120321 | 69 | 323 | 0.9 | 1.7 | 0.00 | 0.20 | 0.00 | 94 | 1011.6 |
| 20260509114813 | 69 | 294 | 0.9 | 3.5 | 0.00 | 0.20 | 0.00 | 94 | 1011.7 |
| 20260509113318 | 68 | 207 | 2.6 | 5.2 | 0.00 | 0.20 | 0.00 | 94 | 1011.1 |
| 20260509111827 | 68 | 208 | 2.6 | 6.1 | 0.00 | 0.20 | 0.00 | 94 | 1010.8 |
| 20260509110337 | 68 | 197 | 1.7 | 5.2 | 0.00 | 0.20 | 0.00 | 94 | 1010.6 |
| 20260509104818 | 67 | 155 | 3.5 | 6.1 | 0.00 | 0.20 | 0.00 | 94 | 1010.2 |
| 20260509103348 | 67 | 171 | 2.6 | 7.0 | 0.00 | 0.20 | 0.00 | 94 | 1010.2 |
| 20260509101819 | 67 | 162 | 0.9 | 3.5 | 0.00 | 0.20 | 0.00 | 94 | 1010.4 |